Regional Weather Roundup
Issued by NWS Charleston, SC

Home | Current Version | Previous Version | Text Only | Print | Product List | Glossary On
Versions: 1 2 3 4 5 6 7 8 9 10 11 12 13 14 15 16 17 18 19 20 21 22 23 24 25 26 27 28 29 30 31 32 33 34 35 36 37 38 39 40 41 42 43 44 45 46 47 48 49 50
000
ASUS42 KCHS 292227
RWRCHS

REGIONAL WEATHER ROUNDUP
NATIONAL WEATHER SERVICE CHARLESTON SC
600 PM EDT WED JUL 29 2015

NOTE: "FAIR" INDICATES FEW OR NO CLOUDS BELOW 12,000 FEET WITH NO
SIGNIFICANT WEATHER AND/OR OBSTRUCTIONS TO VISIBILITY.

NOT ALL STATIONS ARE QUALITY CONTROLLED BY THE NATIONAL
WEATHER SERVICE. USE DATA WITH CAUTION...ESPECIALLY
DEWPOINT OBSERVATIONS.

SCZ027-030-031-034>040-042>050-292300-
...SOUTHEAST SOUTH CAROLINA...

CITY           SKY/WX    TMP DP  RH WIND       PRES   REMARKS
N CHARLESTON   MOSUNNY   89  75  63 SE10      29.91S HX  99
WATERFRONT PRK   N/A     87  79  76 E14       29.90S HX 101
MOUNT PLEASANT FAIR      86  77  74 E6G17     29.92S HX  97
JOHNS ISLAND   FAIR      84  79  84 E14       29.93R HX  96
PINOPOLIS      NOT AVBL
MONCKS CORNER  FAIR      93  72  49 SE6       29.91R HX 100
SUMMERVILLE    FAIR      95  70  43 CALM      29.91S HX 101
BEAUFORT MCAS  MOSUNNY   90  77  65 E9        29.91R HX 103
BEAUFORT ARPT  FAIR      88  77  70 E7        29.91R HX 100
HILTON HEAD IS SUNNY     86  73  66 CALM      29.92F HX  93
WALTERBORO     MOCLDY    97  61  30 NE6       29.91R HX  97
ALLENDALE      FAIR      95  68  41 CALM      29.90R HX  99

...SOUTHERN MIDLANDS AND PEE DEE...

CITY           SKY/WX    TMP DP  RH WIND       PRES   REMARKS
GEORGETOWN     NOT AVBL
KINGSTREE      NOT AVBL
ORANGEBURG     MOSUNNY   94  64  37 SE6       29.91S HX  95
BARNWELL       FAIR      97  73  46 NW3       29.92R HX 107
AIKEN          CLOUDY    88  64  45 CALM      29.97R
MANNING        FAIR      91  64  40 S6        29.90S HX  93
COLUMBIA       PTSUNNY   96  66  37 MISG      29.89S HX  99
SUMTER         MOSUNNY   96  65  35 E6        29.88F HX  99
FLORENCE       MOSUNNY   95  64  35 E5        29.90F HX  97
MYRTLE BEACH   MOSUNNY   88  72  58 E14       29.95F HX  94
N MYRTLE BEACH SUNNY     86  71  60 E13       29.93F HX  91

$$

GAZ063-065-086>088-099>101-113>116-118-119-134>141-150-292300-
...SOUTHEAST GEORGIA...

CITY           SKY/WX    TMP DP  RH WIND       PRES   REMARKS
SAVANNAH ARPT  PTSUNNY   90  73  57 E8        29.90F HX  98
HUNTER AAF     MOSUNNY   89  79  73 E7        29.88F HX 104
FORT STEWART   MOSUNNY   93  73  52 E9        29.88S HX 102
STATESBORO     PTSUNNY   92  76  59 S3        29.90R HX 105
SYLVANIA       MOCLDY    96  74  48 CALM      29.91R HX 106
CLAXTON        FAIR      95  72  46 SE3       29.90R HX 103

...CSRA...CENTRAL AND FAR SOUTHEAST GEORGIA...

CITY           SKY/WX    TMP DP  RH WIND       PRES   REMARKS
THOMSON        CLOUDY    80  80  99 CALM      29.99F
AUGUSTA-BUSH   MOSUNNY   94  73  50 W7        29.91R HX 103
AUGUSTA-DANIEL MOSUNNY   90  74  59 W3        29.94R HX  99
SWAINSBORO     FAIR      95  75  52 CALM      29.93R HX 107
VIDALIA        RAIN      86  77  74 SE5       29.91S HX  97
EASTMAN        FAIR      87  78  76 CALM      29.93S HX 100
HAZLEHURST     FAIR      93  73  51 CALM      29.89S HX 102
ALMA           MOSUNNY   93  75  55 CALM      29.89F HX 104
WAYCROSS       MOSUNNY   94  81  65 SE9       29.90R HX 114
JESUP          FAIR      95  77  55 SE7       29.90S HX 109
BAXLEY         FAIR      95  75  52 SW3       29.89S HX 107
BRUNSWICK      SUNNY     88  70  55 NE7       29.92S HX  92
SAINT SIMONS   SUNNY     85  75  72 E9        29.91F HX  93

$$

SCZ027-028-034-036>038-045-046-048>050-GAZ119-141-292300-
...LAKE AND SUPPLEMENTAL COASTAL OBSERVATIONS...

STATION/POSITION TIME  TEMP    WIND        PRES    WAVE   SWELL
                       AIR SEA DIR/SP/G            HT/PER HT/PER/DIR
                 (UTC) (F)     (DEG/KT/KT) (MB)    (FT/S) (FT/S/D)
UPR LAKE MARION  NOT AVBL
WINYAH BAY       2045   84      70/ 10     1013.0
LAKE MURRAY      2100   92      CALM  /  1 1011.9F
ACE BASIN NERRS  NOT AVBL
FORT PULASKI     2200   84 86                N/A
SAPELO ISLAND    2100   89      70/  8     1013.0S

$$

ANZ835-935-AMZ111-154-330-350-352-354-370-450-454-472-292300-
...C-MAN AND BUOY OBSERVATIONS...

STATION/POSITION TIME  TEMP    WIND        PRES    WAVE   SWELL
                       AIR SEA DIR/SP/G            HT/PER HT/PER/DIR
                 (UTC) (F)     (DEG/KT/KT) (MB)    (FT/S) (FT/S/D)
BUOY 41004       2150   84 85   60/ 16/ 17 1012.5R   3/ 7   2/10
BUOY 41008       2150   82 82   80/  8/ 10 1012.8F   2/ 5   2/110/ 5
FOLLY BEACH CMAN 2200   82      80/ 16/ 19 1013.5S
CAPERS NEARSHORE 2108   82      80/ 16/ 19 1013.4F
FRIPP NEARSHORE  2100   85      90/  8/ 10 1012.7F


STATION/POSITION TIME  TEMP    WIND        PRES    WAVE   SWELL
                       AIR SEA DIR/SP/G            HT/PER HT/PER/DIR
                 (UTC) (F)     (DEG/KT/KT) (MB)    (FT/S) (FT/S/D)
5E ST. MARYS GA  2121      83                N/A     2/ 4
FRYING PAN BUOY  2150   83 84   60/ 14/ 16 1013.7F   3/ 4   2/130/ 7
BUOY 41025       2150   82 85   90/ 14/ 17 1014.7    4/ 6   2/ 60/ 8
CAPE LOOKOUT NC  2200   81      60/ 15/ 16 1014.1F
BUOY 41002       2150   83 82  240/ 14/ 16 1014.4F   5/ 7   3/180/ 7
BUOY 41010       2120   76 84  220/ 25/ 33 1012.7F
ST AUGUSTINE FL  2200   81 82   70/  3/  4 1014.3R


$$



USA.gov is the U.S. government's official web portal to all federal, state and local government web resources and services.